{"data":{"norad_id":57012,"epoch":"2026-09-21T22:04:03.141984Z","epoch_age_seconds":76924,"freshness":"FRESH","line1":"1 57012U 23085J   26264.91948081  .00011064  00000+0  30803-3 0  9991","line2":"2 57012  97.5008  19.1200 0006442  59.7498 300.4383 15.36969547181610","mean_motion":15.36969547,"eccentricity":0.0006442,"inclination_deg":97.5008,"raan_deg":19.12,"arg_perigee_deg":59.7498,"mean_anomaly_deg":300.4383,"bstar":0.00030803,"rev_number":18161,"period_min":93.690860876894,"perigee_km":450.67469087432,"apogee_km":459.47860333725,"semimajor_km":6833.2136471058,"source":"CELESTRAK","updated_at":"2026-09-22T09:00:25.997580Z"}}